CW2888 Weather Reports


time (UTC)temp
C
wind
direction
speed
KPH
gust
KPH
rain 1hr
cm
rain 24hr
cm
rain mn
cm
humidity
%
barometer
mb
20260507152808 12 44 1.6 4.8 0.23 0.23 0.23 84 1014.6
20260507152309 12 10 1.6 3.2 0.23 0.23 0.23 84 1014.6
20260507151809 12 35 0.0 3.2 0.23 0.23 0.23 83 1014.7
20260507151309 12 5 1.6 8.0 0.23 0.23 0.23 82 1014.7
20260507150809 12 73 3.2 4.8 0.23 0.23 0.23 82 1014.7
20260507150309 12 41 1.6 3.2 0.23 0.23 0.23 83 1014.7
20260507145808 12 15 1.6 3.2 0.23 0.23 0.23 81 1014.7
20260507144809 13 48 1.6 3.2 0.10 0.10 0.10 72 1015.0
20260507144309 13 282 1.6 3.2 0.05 0.05 0.05 70 1014.9
20260507143809 13 284 1.6 4.8 0.03 0.03 0.03 69 1014.8
20260507143308 13 277 1.6 3.2 0.00 0.00 0.00 67 1014.8
20260507142808 13 276 1.6 3.2 0.00 0.00 0.00 66 1014.9
20260507141808 13 168 0.0 0.0 0.00 0.00 0.00 65 1014.9
20260507141309 13 168 0.0 3.2 0.00 0.00 0.00 64 1014.9
20260507140809 13 168 1.6 3.2 0.00 0.00 0.00 64 1015.0
20260507140309 14 167 1.6 8.0 0.00 0.00 0.00 64 1015.0
20260507135809 14 194 1.6 3.2 0.00 0.00 0.00 63 1015.0
20260507135309 14 156 3.2 4.8 0.00 0.00 0.00 62 1014.9
20260507134809 14 144 3.2 8.0 0.00 0.00 0.00 60 1015.0
20260507134309 14 206 4.8 8.0 0.00 0.00 0.00 58 1015.0
20260507133809 14 144 6.4 12.9 0.00 0.00 0.00 58 1015.0
20260507133308 14 175 6.4 14.5 0.00 0.00 0.00 58 1015.0
20260507132808 14 164 6.4 12.9 0.00 0.00 0.00 58 1014.9
20260507132308 14 210 4.8 8.0 0.00 0.00 0.00 58 1015.0
20260507131309 14 226 6.4 11.3 0.00 0.00 0.00 57 1015.0
20260507130809 14 181 4.8 12.9 0.00 0.00 0.00 57 1015.0
20260507130309 15 223 6.4 12.9 0.00 0.00 0.00 56 1015.0
20260507125809 15 225 4.8 11.3 0.00 0.00 0.00 57 1015.0
20260507125309 15 218 4.8 11.3 0.00 0.00 0.00 56 1015.0
20260507124309 14 227 4.8 19.3 0.00 0.00 0.00 57 1015.0
20260507123809 14 224 3.2 11.3 0.00 0.00 0.00 57 1015.0
20260507122808 14 109 3.2 9.7 0.00 0.00 0.00 55 1015.0
20260507122309 14 197 4.8 11.3 0.00 0.00 0.00 54 1015.0
20260507121808 15 120 4.8 11.3 0.00 0.00 0.00 54 1015.0
20260507121308 15 188 3.2 12.9 0.00 0.00 0.00 55 1015.0
20260507120808 15 201 3.2 9.7 0.00 0.00 0.00 56 1015.0
20260507115808 14 193 8.0 14.5 0.00 0.00 0.00 57 1015.1
20260507115309 14 128 4.8 11.3 0.00 0.00 0.00 58 1015.1
20260507114809 14 145 8.0 14.5 0.00 0.00 0.00 59 1015.2
20260507114309 14 175 4.8 12.9 0.00 0.00 0.00 57 1015.1
20260507113308 14 167 4.8 14.5 0.00 0.00 0.00 58 1015.1
20260507112808 14 149 4.8 14.5 0.00 0.00 0.00 59 1015.2
20260507112309 14 111 4.8 11.3 0.00 0.00 0.00 59 1015.1
20260507111309 14 127 8.0 12.9 0.00 0.00 0.00 62 1015.1
20260507110809 14 152 4.8 11.3 0.00 0.00 0.00 62 1015.2
20260507110308 14 112 8.0 22.5 0.00 0.00 0.00 62 1015.3
20260507105809 14 115 8.0 19.3 0.00 0.00 0.00 63 1015.2
20260507105308 14 133 4.8 12.9 0.00 0.00 0.00 62 1015.3
20260507104808 14 118 6.4 12.9 0.00 0.00 0.00 62 1015.3
20260507103808 15 145 3.2 11.3 0.00 0.00 0.00 61 1015.4
20260507103308 15 118 4.8 14.5 0.00 0.00 0.00 64 1015.4
20260507102809 15 192 4.8 14.5 0.00 0.00 0.00 62 1015.4
20260507102309 14 231 4.8 12.9 0.00 0.00 0.00 63 1015.5
20260507101809 14 172 3.2 11.3 0.00 0.00 0.00 66 1015.6
20260507101308 14 149 8.0 14.5 0.00 0.00 0.00 64 1015.6
20260507100808 14 142 4.8 12.9 0.00 0.00 0.00 65 1015.6
20260507095808 13 171 8.0 19.3 0.00 0.00 0.00 65 1015.7
20260507095309 13 138 6.4 11.3 0.00 0.00 0.00 64 1015.6
20260507094809 13 139 4.8 11.3 0.00 0.00 0.00 65 1015.6
20260507094309 13 122 4.8 9.7 0.00 0.00 0.00 70 1015.6
20260507093809 12 125 8.0 12.9 0.00 0.00 0.00 69 1015.5
20260507093309 12 128 3.2 8.0 0.00 0.00 0.00 70 1015.6
20260507092809 12 121 9.7 12.9 0.00 0.00 0.00 71 1015.5
20260507092309 12 91 6.4 12.9 0.00 0.00 0.00 71 1015.5
20260507091808 12 84 6.4 12.9 0.00 0.00 0.00 72 1015.6
20260507091308 11 107 4.8 12.9 0.00 0.00 0.00 71 1015.6
20260507090809 11 85 4.8 14.5 0.00 0.00 0.00 72 1015.7
20260507090309 11 115 4.8 9.7 0.00 0.00 0.00 73 1015.7
20260507085809 11 125 4.8 8.0 0.00 0.00 0.00 74 1015.7
20260507085309 11 128 4.8 9.7 0.00 0.00 0.00 74 1015.7
20260507084808 10 127 4.8 12.9 0.00 0.00 0.00 75 1015.7
20260507084308 10 114 4.8 9.7 0.00 0.00 0.00 75 1015.7
20260507083809 10 107 1.6 9.7 0.00 0.00 0.00 76 1015.7
20260507083311 10 97 3.2 8.0 0.00 0.00 0.00 77 1015.7
20260507082841 10 141 3.2 8.0 0.00 0.00 0.00 76 1015.8
20260507081808 9 99 3.2 8.0 0.00 0.00 0.00 78 1015.7
20260507081309 9 63 3.2 8.0 0.00 0.00 0.00 78 1015.7
20260507080808 9 82 4.8 8.0 0.00 0.00 0.00 78 1015.6
20260507080309 9 110 4.8 8.0 0.00 0.00 0.00 79 1015.6
20260507075309 8 77 3.2 8.0 0.00 0.00 0.00 80 1015.5
20260507074808 8 58 3.2 4.8 0.00 0.00 0.00 80 1015.5
20260507074308 8 123 1.6 4.8 0.00 0.00 0.00 81 1015.5
20260507073809 8 60 1.6 3.2 0.00 0.00 0.00 81 1015.5
20260507073308 8 94 1.6 3.2 0.00 0.00 0.00 81 1015.5
20260507072809 8 80 3.2 4.8 0.00 0.00 0.00 81 1015.4
20260507071809 8 77 3.2 8.0 0.00 0.00 0.00 82 1015.3
20260507071309 8 78 1.6 8.0 0.00 0.00 0.00 82 1015.3
20260507070309 8 92 4.8 11.3 0.00 0.00 0.00 82 1015.3
20260507065308 7 75 3.2 11.3 0.00 0.00 0.00 83 1015.2
20260507064808 7 78 4.8 4.8 0.00 0.00 0.00 83 1015.2
20260507064309 7 93 3.2 4.8 0.00 0.00 0.00 83 1015.3
20260507063808 7 114 3.2 4.8 0.00 0.00 0.00 83 1015.3
20260507062809 7 109 1.6 9.7 0.00 0.00 0.00 83 1015.2
20260507062309 7 98 3.2 8.0 0.00 0.00 0.00 83 1015.2
20260507061809 7 91 3.2 4.8 0.00 0.00 0.00 83 1015.1
20260507061308 7 92 3.2 11.3 0.00 0.00 0.00 83 1015.1
20260507060308 7 95 1.6 8.0 0.00 0.00 0.00 83 1015.1
20260507055809 7 92 6.4 9.7 0.00 0.00 0.00 83 1015.0
20260507055309 7 89 3.2 8.0 0.00 0.00 0.00 84 1015.0
20260507054808 7 97 3.2 9.7 0.00 0.00 0.00 84 1014.9
20260507054308 7 79 3.2 9.7 0.00 0.00 0.00 84 1014.9
20260507053809 7 100 3.2 4.8 0.00 0.00 0.00 84 1014.9
20260507053308 7 83 3.2 8.0 0.00 0.00 0.00 84 1014.9
20260507052809 7 85 1.6 4.8 0.00 0.00 0.00 84 1014.9
20260507051309 7 85 4.8 8.0 0.00 0.00 0.00 84 1014.9
20260507050808 7 90 4.8 8.0 0.00 0.00 0.00 84 1014.9
20260507050309 7 95 3.2 8.0 0.00 0.00 0.00 84 1014.9
20260507045808 7 78 3.2 8.0 0.00 0.00 0.00 84 1014.9
20260507045309 7 71 3.2 8.0 0.00 0.00 0.00 84 1014.9
20260507044808 7 45 3.2 8.0 0.00 0.00 0.00 84 1014.9
20260507044309 7 50 1.6 4.8 0.00 0.00 0.00 84 1014.9
20260507042809 7 76 1.6 3.2 0.00 0.00 0.00 83 1014.8
20260507042308 7 85 3.2 8.0 0.00 0.00 0.00 83 1014.8
20260507041808 7 71 1.6 4.8 0.00 0.00 0.00 83 1014.9
20260507041309 7 64 3.2 4.8 0.00 0.00 0.00 83 1014.8
20260507040809 7 74 3.2 8.0 0.00 0.00 0.00 83 1014.8
20260507035808 7 81 4.8 9.7 0.00 0.00 0.00 82 1014.9
20260507035309 7 88 3.2 8.0 0.00 0.00 0.00 82 1014.9
20260507034808 7 80 3.2 8.0 0.00 0.00 0.00 82 1014.9
20260507034308 7 71 3.2 4.8 0.00 0.00 0.00 82 1014.9
20260507033809 7 65 4.8 9.7 0.00 0.00 0.00 82 1014.9
20260507033309 7 75 3.2 11.3 0.00 0.00 0.00 81 1014.9
20260507032809 7 84 3.2 8.0 0.00 0.00 0.00 81 1014.9
20260507032308 7 85 4.8 8.0 0.00 0.00 0.00 81 1014.9
20260507031309 7 95 4.8 12.9 0.00 0.00 0.00 81 1015.0
20260507030809 7 78 4.8 12.9 0.00 0.00 0.00 80 1014.9
20260507030309 7 80 4.8 12.9 0.00 0.00 0.00 80 1015.0
20260507025309 7 89 4.8 12.9 0.00 0.00 0.00 80 1014.9
20260507024809 8 81 4.8 11.3 0.00 0.00 0.00 80 1014.9
20260507024308 8 82 4.8 8.0 0.00 0.00 0.00 80 1014.9
20260507023809 8 77 3.2 9.7 0.00 0.00 0.00 80 1014.9
20260507023309 8 87 3.2 9.7 0.00 0.00 0.00 79 1014.9
20260507022809 8 92 4.8 11.3 0.00 0.00 0.00 79 1014.9
20260507022309 8 93 3.2 9.7 0.00 0.00 0.00 79 1014.9
20260507021808 8 80 6.4 9.7 0.00 0.00 0.00 79 1014.9
20260507021308 8 102 1.6 8.0 0.00 0.00 0.00 79 1014.9
20260507020808 8 114 4.8 8.0 0.00 0.00 0.00 79 1014.9
20260507020308 8 71 3.2 8.0 0.00 0.00 0.00 79 1014.9
20260507015809 8 91 4.8 9.7 0.00 0.00 0.00 79 1014.9
20260507015308 8 86 3.2 9.7 0.00 0.00 0.00 78 1014.9
20260507014808 8 91 8.0 12.9 0.00 0.00 0.00 78 1014.9
20260507013308 8 88 6.4 11.3 0.00 0.00 0.00 78 1014.9
20260507012808 8 86 4.8 11.3 0.00 0.00 0.00 78 1014.9
20260507012309 8 83 4.8 8.0 0.00 0.00 0.00 78 1014.9
20260507011809 8 90 4.8 8.0 0.00 0.00 0.00 78 1014.9
20260507010809 8 90 4.8 9.7 0.00 0.00 0.00 78 1014.9
20260507010309 8 75 3.2 4.8 0.00 0.00 0.00 78 1014.9
20260507005808 8 99 4.8 8.0 0.00 0.00 0.00 77 1014.9
20260507005308 8 88 6.4 11.3 0.00 0.00 0.00 77 1014.9
20260507004808 8 96 4.8 9.7 0.00 0.00 0.00 77 1014.8
20260507004309 8 81 3.2 12.9 0.00 0.00 0.00 77 1014.9
20260507003808 8 82 3.2 11.3 0.00 0.00 0.00 77 1014.9
20260507003308 8 91 4.8 12.9 0.00 0.00 0.00 77 1014.9
20260507002808 8 102 8.0 16.1 0.00 0.00 0.00 76 1014.9
20260507002308 8 89 6.4 16.1 0.00 0.00 0.00 76 1015.0
20260507001809 8 88 6.4 12.9 0.00 0.00 0.00 76 1015.0
20260507001309 8 99 4.8 14.5 0.00 0.00 0.00 75 1015.0
20260507000808 8 90 4.8 12.9 0.00 0.00 0.00 75 1015.1
20260507000308 8 85 4.8 11.3 0.00 0.00 0.00 74 1015.1
20260506234809 9 109 3.2 11.3 0.00 0.00 0.00 73 1015.1
20260506234309 9 87 4.8 9.7 0.00 0.00 0.00 73 1015.0
20260506233808 9 87 4.8 16.1 0.00 0.00 0.00 72 1015.0
20260506233309 9 83 4.8 12.9 0.00 0.00 0.00 72 1015.0
20260506232308 9 84 4.8 12.9 0.00 0.00 0.00 71 1015.0
20260506231809 9 96 6.4 12.9 0.00 0.00 0.00 71 1015.0
20260506231309 9 87 6.4 14.5 0.00 0.00 0.00 71 1015.1
20260506230308 9 88 11.3 19.3 0.00 0.00 0.00 70 1015.0
20260506225808 9 85 6.4 16.1 0.00 0.00 0.00 70 1015.0
20260506225309 9 95 6.4 14.5 0.00 0.00 0.00 69 1015.0
20260506224309 9 94 4.8 14.5 0.00 0.00 0.00 68 1015.0
20260506223809 9 90 4.8 14.5 0.00 0.00 0.00 68 1015.0
20260506223309 10 81 4.8 14.5 0.00 0.00 0.00 67 1014.9
20260506222809 10 83 6.4 12.9 0.00 0.00 0.00 66 1014.9
20260506222308 10 85 4.8 11.3 0.00 0.00 0.00 66 1014.9
20260506220808 10 83 4.8 11.3 0.00 0.00 0.00 64 1014.8
20260506215809 10 88 4.8 8.0 0.00 0.00 0.00 63 1014.8
20260506215308 10 94 6.4 12.9 0.00 0.00 0.00 63 1014.8
20260506214809 10 88 4.8 9.7 0.00 0.00 0.00 62 1014.8
20260506213808 10 96 4.8 11.3 0.00 0.00 0.00 61 1014.8
20260506213308 10 89 3.2 8.0 0.00 0.00 0.00 61 1014.8
20260506212809 10 100 3.2 8.0 0.00 0.00 0.00 61 1014.7
20260506212309 11 96 3.2 4.8 0.00 0.00 0.00 60 1014.7
20260506211809 11 83 3.2 11.3 0.00 0.00 0.00 60 1014.7
20260506211309 11 93 3.2 8.0 0.00 0.00 0.00 60 1014.6
20260506210808 11 95 1.6 4.8 0.00 0.00 0.00 59 1014.5
20260506210309 11 98 3.2 4.8 0.00 0.00 0.00 59 1014.5
20260506205808 11 87 3.2 8.0 0.00 0.00 0.00 58 1014.4
20260506205309 11 84 3.2 11.3 0.00 0.00 0.00 58 1014.4
20260506204809 11 91 3.2 4.8 0.00 0.00 0.00 58 1014.4
20260506204308 11 91 4.8 11.3 0.00 0.00 0.00 57 1014.5
20260506202308 11 79 3.2 8.0 0.00 0.00 0.00 55 1014.4
20260506201808 12 96 3.2 11.3 0.00 0.00 0.00 55 1014.3
20260506201309 12 97 3.2 9.7 0.00 0.00 0.00 54 1014.2
20260506200808 12 98 3.2 8.0 0.00 0.00 0.00 54 1014.2
20260506200308 12 87 4.8 12.9 0.00 0.00 0.00 53 1014.1
20260506195308 12 80 4.8 9.7 0.00 0.00 0.00 53 1013.8
20260506194808 12 71 3.2 8.0 0.00 0.00 0.00 52 1013.7
20260506194308 12 77 3.2 4.8 0.00 0.00 0.00 52 1013.8
20260506193808 12 57 1.6 4.8 0.00 0.00 0.00 52 1013.8
20260506193308 12 31 1.6 3.2 0.00 0.00 0.00 52 1013.8
20260506192808 12 23 1.6 4.8 0.00 0.00 0.00 51 1013.8
20260506192308 13 31 3.2 4.8 0.00 0.00 0.00 51 1013.8
20260506191808 13 23 3.2 4.8 0.00 0.00 0.00 50 1013.8
20260506191308 13 38 1.6 4.8 0.00 0.00 0.00 50 1013.8
20260506190808 13 32 3.2 8.0 0.00 0.00 0.00 50 1013.7
20260506185808 13 63 3.2 4.8 0.00 0.00 0.00 49 1013.7
20260506185308 13 70 3.2 8.0 0.00 0.00 0.00 48 1013.6
20260506184809 13 25 1.6 9.7 0.00 0.00 0.00 49 1013.6
20260506184308 13 40 3.2 8.0 0.00 0.00 0.00 49 1013.7
20260506183808 13 15 3.2 9.7 0.00 0.00 0.00 48 1013.6
20260506183308 13 44 1.6 9.7 0.00 0.00 0.00 49 1013.6
20260506182809 13 12 3.2 8.0 0.00 0.00 0.00 49 1013.6
20260506181808 13 15 3.2 9.7 0.00 0.00 0.00 48 1013.6
20260506181309 13 19 3.2 12.9 0.00 0.00 0.00 48 1013.6
20260506180808 13 14 4.8 11.3 0.00 0.00 0.00 48 1013.5
20260506180308 13 46 3.2 11.3 0.00 0.00 0.00 48 1013.4
20260506175808 13 354 3.2 9.7 0.00 0.00 0.00 48 1013.4
20260506175309 13 10 3.2 14.5 0.00 0.00 0.00 48 1013.3
20260506174809 13 26 4.8 14.5 0.00 0.00 0.00 48 1013.3
20260506174308 13 72 6.4 16.1 0.00 0.00 0.00 47 1013.2
20260506173808 14 83 4.8 14.5 0.00 0.00 0.00 47 1013.2
20260506173308 14 77 4.8 11.3 0.00 0.00 0.00 48 1013.2
20260506172809 14 34 6.4 14.5 0.00 0.00 0.00 48 1013.2
20260506172309 14 63 3.2 9.7 0.00 0.00 0.00 48 1013.2
20260506171808 14 44 3.2 9.7 0.00 0.00 0.00 47 1013.1
20260506170808 14 83 3.2 4.8 0.00 0.00 0.00 46 1013.0
20260506165809 15 30 3.2 9.7 0.00 0.00 0.00 45 1013.1
20260506165309 15 53 4.8 9.7 0.00 0.00 0.00 45 1013.1
20260506164808 15 50 3.2 11.3 0.00 0.00 0.00 45 1013.1
20260506164309 15 79 4.8 9.7 0.00 0.00 0.00 44 1013.1
20260506163809 15 17 4.8 12.9 0.00 0.00 0.00 44 1013.0
20260506162808 15 62 1.6 9.7 0.00 0.00 0.00 44 1013.0
20260506162309 15 317 3.2 9.7 0.00 0.00 0.00 44 1013.0
20260506161808 15 65 4.8 9.7 0.00 0.00 0.00 45 1013.0
20260506160808 14 290 3.2 4.8 0.00 0.00 0.00 48 1013.1
20260506160309 14 81 4.8 11.3 0.00 0.00 0.00 48 1013.1
20260506155808 14 22 3.2 11.3 0.00 0.00 0.00 48 1013.1
20260506154308 15 308 1.6 9.7 0.00 0.00 0.00 48 1013.1
20260506153809 15 31 4.8 14.5 0.00 0.00 0.00 49 1013.1
20260506153308 15 341 3.2 9.7 0.00 0.00 0.00 47 1013.2